Time,TemperatureF,DewpointF,PressureIn,WindDirection,WindDirectionDegrees,WindSpeedMPH,WindSpeedGustMPH,Humidity,HourlyPrecipIn,Conditions,Clouds,dailyrainin,SoftwareType,DateUTC
2013-07-17 10:30:00,83.1,69.7,30.19,SSW,202,4.0,12.0,64,0.00,,,0.00,VWS V12.08,2013-07-17 15:30:00,
2013-07-17 10:40:00,83.5,69.1,30.19,WSW,242,6.0,13.0,62,0.00,,,0.00,VWS V12.08,2013-07-17 15:40:00,
2013-07-17 10:45:00,83.7,69.8,30.18,South,190,11.0,13.0,63,0.00,,,0.00,VWS V12.08,2013-07-17 15:45:00,
2013-07-17 10:50:00,83.9,69.0,30.18,SW,214,10.0,13.0,61,0.00,,,0.00,VWS V12.08,2013-07-17 15:50:00,
2013-07-17 10:55:00,83.9,69.5,30.18,WSW,240,6.0,13.0,62,0.00,,,0.00,VWS V12.08,2013-07-17 15:55:00,
2013-07-17 11:00:00,84.3,70.3,30.18,SSW,207,6.0,13.0,63,0.00,,,0.00,VWS V12.08,2013-07-17 16:00:00,
2013-07-17 11:05:00,84.5,70.1,30.18,WSW,246,6.0,12.0,62,0.00,,,0.00,VWS V12.08,2013-07-17 16:05:00,
2013-07-17 11:10:00,85.0,70.1,30.18,SW,214,11.0,12.0,61,0.00,,,0.00,VWS V12.08,2013-07-17 16:10:00,
2013-07-17 11:15:00,85.6,70.1,30.18,South,178,6.0,12.0,60,0.00,,,0.00,VWS V12.08,2013-07-17 16:15:00,
2013-07-17 11:20:00,85.6,69.1,30.19,SSW,203,9.0,13.0,58,0.00,,,0.00,VWS V12.08,2013-07-17 16:20:00,
2013-07-17 11:25:00,85.4,69.4,30.19,SW,222,11.0,14.0,59,0.00,,,0.00,VWS V12.08,2013-07-17 16:25:00,
2013-07-17 11:30:00,85.6,69.6,30.18,WSW,246,6.0,14.0,59,0.00,,,0.00,VWS V12.08,2013-07-17 16:30:00,
2013-07-17 11:35:00,85.6,69.6,30.18,WSW,248,6.0,13.0,59,0.00,,,0.00,VWS V12.08,2013-07-17 16:35:00,
2013-07-17 11:40:00,86.0,69.0,30.18,SSW,205,7.0,14.0,57,0.00,,,0.00,VWS V12.08,2013-07-17 16:40:00,
2013-07-17 11:45:00,85.9,69.4,30.18,SW,214,7.0,15.0,58,0.00,,,0.00,VWS V12.08,2013-07-17 16:45:00,
2013-07-17 11:50:00,86.2,69.2,30.18,SW,221,13.0,15.0,57,0.00,,,0.00,VWS V12.08,2013-07-17 16:50:00,
2013-07-17 11:55:00,86.2,68.7,30.18,SW,214,12.0,15.0,56,0.00,,,0.00,VWS V12.08,2013-07-17 16:55:00,
2013-07-17 12:00:00,86.3,69.8,30.18,SW,219,12.0,16.0,58,0.00,,,0.00,VWS V12.08,2013-07-17 17:00:00,
2013-07-17 12:05:00,86.3,68.8,30.18,SW,222,14.0,16.0,56,0.00,,,0.00,VWS V12.08,2013-07-17 17:05:00,
2013-07-17 12:10:00,86.4,68.3,30.18,SW,215,8.0,17.0,55,0.00,,,0.00,VWS V12.08,2013-07-17 17:10:00,
2013-07-17 12:15:00,86.8,68.7,30.18,SSW,197,2.0,17.0,55,0.00,,,0.00,VWS V12.08,2013-07-17 17:15:00,
2013-07-17 12:20:00,86.9,68.8,30.18,SW,227,11.0,17.0,55,0.00,,,0.00,VWS V12.08,2013-07-17 17:20:00,
2013-07-17 12:25:00,87.0,69.4,30.18,WSW,241,11.0,18.0,56,0.00,,,0.00,VWS V12.08,2013-07-17 17:25:00,
2013-07-17 12:30:00,87.0,69.4,30.18,SSW,205,12.0,18.0,56,0.00,,,0.00,VWS V12.08,2013-07-17 17:30:00,
2013-07-17 12:35:00,87.0,69.4,30.18,South,191,8.0,16.0,56,0.00,,,0.00,VWS V12.08,2013-07-17 17:35:00,
2013-07-17 12:40:00,87.1,69.5,30.17,SW,221,10.0,16.0,56,0.00,,,0.00,VWS V12.08,2013-07-17 17:40:00,
2013-07-17 12:45:00,87.3,69.2,30.17,SSW,192,11.0,16.0,55,0.00,,,0.00,VWS V12.08,2013-07-17 17:45:00,
2013-07-17 12:50:00,87.4,69.3,30.17,SSW,202,9.0,16.0,55,0.00,,,0.00,VWS V12.08,2013-07-17 17:50:00,
2013-07-17 12:55:00,87.7,68.5,30.17,SSW,192,12.0,16.0,53,0.00,,,0.00,VWS V12.08,2013-07-17 17:55:00,
2013-07-17 13:00:00,87.6,68.9,30.17,SSW,200,10.0,16.0,54,0.00,,,0.00,VWS V12.08,2013-07-17 18:00:00,
2013-07-17 13:05:00,87.9,69.2,30.17,SW,221,14.0,15.0,54,0.00,,,0.00,VWS V12.08,2013-07-17 18:05:00,
2013-07-17 13:10:00,87.5,69.4,30.17,SSW,205,9.0,16.0,55,0.00,,,0.00,VWS V12.08,2013-07-17 18:10:00,
2013-07-17 13:15:00,87.8,69.1,30.17,SSW,205,3.0,16.0,54,0.00,,,0.00,VWS V12.08,2013-07-17 18:15:00,
2013-07-17 13:20:00,88.1,69.9,30.16,South,175,3.0,16.0,55,0.00,,,0.00,VWS V12.08,2013-07-17 18:20:00,
2013-07-17 13:25:00,87.9,69.7,30.16,WSW,237,11.0,16.0,55,0.00,,,0.00,VWS V12.08,2013-07-17 18:25:00,
2013-07-17 13:30:00,88.3,69.0,30.16,SW,227,7.0,16.0,53,0.00,,,0.00,VWS V12.08,2013-07-17 18:30:00,
2013-07-17 13:35:00,88.3,69.6,30.16,SSW,198,9.0,15.0,54,0.00,,,0.00,VWS V12.08,2013-07-17 18:35:00,
2013-07-17 13:40:00,88.3,69.6,30.16,SW,230,9.0,17.0,54,0.00,,,0.00,VWS V12.08,2013-07-17 18:40:00,
2013-07-17 13:45:00,88.3,69.6,30.15,WSW,253,5.0,17.0,54,0.00,,,0.00,VWS V12.08,2013-07-17 18:45:00,
2013-07-17 13:50:00,88.2,70.0,30.16,SW,232,9.0,17.0,55,0.00,,,0.00,VWS V12.08,2013-07-17 18:50:00,
2013-07-17 13:55:00,88.1,70.4,30.15,SW,232,6.0,17.0,56,0.00,,,0.00,VWS V12.08,2013-07-17 18:55:00,
2013-07-17 14:00:00,88.6,69.3,30.15,South,184,8.0,17.0,53,0.00,,,0.00,VWS V12.08,2013-07-17 19:00:00,
2013-07-17 14:05:00,88.9,69.6,30.15,SSW,194,5.0,13.0,53,0.00,,,0.00,VWS V12.08,2013-07-17 19:05:00,
2013-07-17 14:10:00,89.5,69.0,30.15,SW,223,10.0,15.0,51,0.00,,,0.00,VWS V12.08,2013-07-17 19:10:00,
2013-07-17 14:15:00,89.2,68.7,30.15,SSW,192,10.0,21.0,51,0.00,,,0.00,VWS V12.08,2013-07-17 19:15:00,
2013-07-17 14:20:00,89.5,69.0,30.15,SW,217,10.0,21.0,51,0.00,,,0.00,VWS V12.08,2013-07-17 19:20:00,
2013-07-17 14:25:00,89.4,68.3,30.15,SW,215,16.0,21.0,50,0.00,,,0.00,VWS V12.08,2013-07-17 19:25:00,
2013-07-17 14:30:00,88.9,69.0,30.14,SW,217,11.0,21.0,52,0.00,,,0.00,VWS V12.08,2013-07-17 19:30:00,
2013-07-17 14:35:00,88.9,68.4,30.14,South,176,5.0,18.0,51,0.00,,,0.00,VWS V12.08,2013-07-17 19:35:00,
2013-07-17 14:40:00,89.3,69.4,30.14,South,191,10.0,20.0,52,0.00,,,0.00,VWS V12.08,2013-07-17 19:40:00,
2013-07-17 14:45:00,89.5,69.0,30.13,SSW,192,15.0,20.0,51,0.00,,,0.00,VWS V12.08,2013-07-17 19:45:00,
2013-07-17 14:50:00,89.6,69.1,30.13,SSW,192,8.0,20.0,51,0.00,,,0.00,VWS V12.08,2013-07-17 19:50:00,
2013-07-17 14:55:00,89.8,69.8,30.13,South,171,5.0,20.0,52,0.00,,,0.00,VWS V12.08,2013-07-17 19:55:00,
2013-07-17 15:00:00,89.7,69.2,30.13,South,186,9.0,20.0,51,0.00,,,0.00,VWS V12.08,2013-07-17 20:00:00,
2013-07-17 15:05:00,90.1,69.0,30.13,SSW,209,14.0,17.0,50,0.00,,,0.00,VWS V12.08,2013-07-17 20:05:00,
2013-07-17 15:10:00,90.0,68.9,30.13,South,182,12.0,17.0,50,0.00,,,0.00,VWS V12.08,2013-07-17 20:10:00,
2013-07-17 15:15:00,89.8,69.3,30.12,SE,145,11.0,18.0,51,0.00,,,0.00,VWS V12.08,2013-07-17 20:15:00,
2013-07-17 15:20:00,89.6,69.1,30.12,WSW,238,7.0,18.0,51,0.00,,,0.00,VWS V12.08,2013-07-17 20:20:00,
2013-07-17 15:25:00,90.1,68.4,30.12,South,186,12.0,18.0,49,0.00,,,0.00,VWS V12.08,2013-07-17 20:25:00,
2013-07-17 15:30:00,90.0,68.9,30.12,SW,222,12.0,18.0,50,0.00,,,0.00,VWS V12.08,2013-07-17 20:30:00,
2013-07-17 15:35:00,89.9,68.8,30.12,SSE,160,5.0,14.0,50,0.00,,,0.00,VWS V12.08,2013-07-17 20:35:00,
2013-07-17 15:40:00,89.8,68.7,30.12,SSW,192,13.0,18.0,50,0.00,,,0.00,VWS V12.08,2013-07-17 20:40:00,
2013-07-17 15:45:00,89.9,69.4,30.12,SSW,196,17.0,20.0,51,0.00,,,0.00,VWS V12.08,2013-07-17 20:45:00,
2013-07-17 15:50:00,90.2,69.1,30.11,South,190,7.0,20.0,50,0.00,,,0.00,VWS V12.08,2013-07-17 20:50:00,
2013-07-17 15:55:00,89.9,68.8,30.11,SSW,212,12.0,20.0,50,0.00,,,0.00,VWS V12.08,2013-07-17 20:55:00,
2013-07-17 16:00:00,90.0,68.9,30.11,SSW,207,11.0,20.0,50,0.00,,,0.00,VWS V12.08,2013-07-17 21:00:00,
2013-07-17 16:05:00,90.1,69.6,30.11,South,188,11.0,17.0,51,0.00,,,0.00,VWS V12.08,2013-07-17 21:05:00,
2013-07-17 16:10:00,89.9,69.4,30.11,SSW,198,4.0,20.0,51,0.00,,,0.00,VWS V12.08,2013-07-17 21:10:00,
2013-07-17 16:15:00,90.3,70.3,30.11,SSW,198,9.0,20.0,52,0.00,,,0.00,VWS V12.08,2013-07-17 21:15:00,
2013-07-17 16:20:00,90.2,69.6,30.10,SW,236,13.0,20.0,51,0.00,,,0.00,VWS V12.08,2013-07-17 21:20:00,
2013-07-17 16:25:00,90.3,69.7,30.10,SE,142,12.0,20.0,51,0.00,,,0.00,VWS V12.08,2013-07-17 21:25:00,
2013-07-17 16:30:00,90.7,70.1,30.10,SW,225,8.0,20.0,51,0.00,,,0.00,VWS V12.08,2013-07-17 21:30:00,
2013-07-17 16:35:00,90.4,70.4,30.10,WSW,242,9.0,18.0,52,0.00,,,0.00,VWS V12.08,2013-07-17 21:35:00,
2013-07-17 16:40:00,90.1,69.6,30.10,SSW,212,9.0,18.0,51,0.00,,,0.00,VWS V12.08,2013-07-17 21:40:00,
2013-07-17 16:45:00,90.0,69.5,30.10,SW,219,9.0,18.0,51,0.00,,,0.00,VWS V12.08,2013-07-17 21:45:00,
2013-07-17 16:50:00,90.6,70.0,30.10,ESE,119,9.0,18.0,51,0.00,,,0.00,VWS V12.08,2013-07-17 21:50:00,
2013-07-17 16:55:00,90.3,69.2,30.10,SSW,200,5.0,20.0,50,0.00,,,0.00,VWS V12.08,2013-07-17 21:55:00,
2013-07-17 17:00:00,90.1,69.0,30.10,SW,233,14.0,20.0,50,0.00,,,0.00,VWS V12.08,2013-07-17 22:00:00,
2013-07-17 17:05:00,90.2,68.5,30.10,SSW,196,11.0,19.0,49,0.00,,,0.00,VWS V12.08,2013-07-17 22:05:00,
2013-07-17 17:10:00,90.2,69.1,30.10,SW,215,11.0,19.0,50,0.00,,,0.00,VWS V12.08,2013-07-17 22:10:00,
2013-07-17 17:15:00,89.6,68.5,30.10,WSW,250,3.0,19.0,50,0.00,,,0.00,VWS V12.08,2013-07-17 22:15:00,
2013-07-17 17:20:00,90.0,69.5,30.09,SSW,199,7.0,19.0,51,0.00,,,0.00,VWS V12.08,2013-07-17 22:20:00,
2013-07-17 17:25:00,89.8,69.3,30.09,South,189,10.0,19.0,51,0.00,,,0.00,VWS V12.08,2013-07-17 22:25:00,
2013-07-17 17:30:00,89.6,69.7,30.09,SSE,153,6.0,19.0,52,0.00,,,0.00,VWS V12.08,2013-07-17 22:30:00,
2013-07-17 17:35:00,89.8,69.3,30.09,SSE,163,6.0,17.0,51,0.00,,,0.00,VWS V12.08,2013-07-17 22:35:00,
2013-07-17 17:40:00,89.8,68.7,30.09,South,182,12.0,20.0,50,0.00,,,0.00,VWS V12.08,2013-07-17 22:40:00,
2013-07-17 17:45:00,89.7,69.8,30.08,South,178,11.0,20.0,52,0.00,,,0.00,VWS V12.08,2013-07-17 22:45:00,
2013-07-17 17:50:00,89.8,69.3,30.08,South,190,15.0,20.0,51,0.00,,,0.00,VWS V12.08,2013-07-17 22:50:00,
2013-07-17 17:55:00,90.0,68.9,30.08,SW,234,11.0,20.0,50,0.00,,,0.00,VWS V12.08,2013-07-17 22:55:00,
2013-07-17 18:00:00,90.0,68.9,30.08,SSE,163,4.0,20.0,50,0.00,,,0.00,VWS V12.08,2013-07-17 23:00:00,
2013-07-17 18:05:00,89.9,69.4,30.08,South,184,9.0,17.0,51,0.00,,,0.00,VWS V12.08,2013-07-17 23:05:00,
2013-07-17 18:10:00,89.7,69.2,30.08,South,186,10.0,17.0,51,0.00,,,0.00,VWS V12.08,2013-07-17 23:10:00,
2013-07-17 18:15:00,89.8,68.7,30.08,SW,223,7.0,18.0,50,0.00,,,0.00,VWS V12.08,2013-07-17 23:15:00,
2013-07-17 18:20:00,90.1,69.6,30.08,SW,219,3.0,18.0,51,0.00,,,0.00,VWS V12.08,2013-07-17 23:20:00,
2013-07-17 18:25:00,90.3,69.2,30.08,SSW,192,13.0,18.0,50,0.00,,,0.00,VWS V12.08,2013-07-17 23:25:00,
2013-07-17 18:30:00,90.0,68.9,30.08,South,178,10.0,18.0,50,0.00,,,0.00,VWS V12.08,2013-07-17 23:30:00,
2013-07-17 18:35:00,89.9,68.8,30.07,SSW,209,7.0,14.0,50,0.00,,,0.00,VWS V12.08,2013-07-17 23:35:00,
2013-07-17 18:40:00,89.8,69.3,30.07,SSW,203,3.0,15.0,51,0.00,,,0.00,VWS V12.08,2013-07-17 23:40:00,
2013-07-17 18:45:00,89.8,69.8,30.07,ESE,115,4.0,15.0,52,0.00,,,0.00,VWS V12.08,2013-07-17 23:45:00,
2013-07-17 18:50:00,89.5,69.0,30.07,SSW,209,11.0,22.0,51,0.00,,,0.00,VWS V12.08,2013-07-17 23:50:00,
2013-07-17 18:55:00,89.3,69.4,30.07,SSE,149,5.0,22.0,52,0.00,,,0.00,VWS V12.08,2013-07-17 23:55:00,
2013-07-17 19:00:00,89.2,69.3,30.07,SSW,202,9.0,22.0,52,0.00,,,0.00,VWS V12.08,2013-07-18 00:00:00,
2013-07-17 19:05:00,89.3,69.9,30.07,SSW,194,12.0,13.0,53,0.00,,,0.00,VWS V12.08,2013-07-18 00:05:00,
2013-07-17 19:10:00,89.0,69.7,30.07,SSE,159,9.0,16.0,53,0.00,,,0.00,VWS V12.08,2013-07-18 00:10:00,
2013-07-17 19:15:00,88.8,69.5,30.07,South,191,11.0,16.0,53,0.00,,,0.00,VWS V12.08,2013-07-18 00:15:00,
2013-07-17 19:20:00,88.7,69.9,30.07,South,176,11.0,16.0,54,0.00,,,0.00,VWS V12.08,2013-07-18 00:20:00,
2013-07-17 19:25:00,88.6,69.8,30.06,SSW,197,4.0,16.0,54,0.00,,,0.00,VWS V12.08,2013-07-18 00:25:00,
2013-07-17 19:30:00,88.6,69.8,30.07,SSW,192,6.0,16.0,54,0.00,,,0.00,VWS V12.08,2013-07-18 00:30:00,
2013-07-17 19:35:00,88.3,69.6,30.06,SSW,200,8.0,14.0,54,0.00,,,0.00,VWS V12.08,2013-07-18 00:35:00,
2013-07-17 19:40:00,88.1,69.9,30.07,South,171,5.0,14.0,55,0.00,,,0.00,VWS V12.08,2013-07-18 00:40:00,
2013-07-17 19:45:00,87.9,69.7,30.07,SW,223,8.0,14.0,55,0.00,,,0.00,VWS V12.08,2013-07-18 00:45:00,
2013-07-17 19:50:00,87.8,70.2,30.06,SW,222,12.0,14.0,56,0.00,,,0.00,VWS V12.08,2013-07-18 00:50:00,
2013-07-17 19:55:00,87.5,69.9,30.07,South,191,8.0,14.0,56,0.00,,,0.00,VWS V12.08,2013-07-18 00:55:00,
2013-07-17 20:00:00,87.3,70.2,30.07,SSE,154,4.0,14.0,57,0.00,,,0.00,VWS V12.08,2013-07-18 01:00:00,
2013-07-17 20:05:00,87.2,70.1,30.06,South,176,9.0,10.0,57,0.00,,,0.00,VWS V12.08,2013-07-18 01:05:00,
2013-07-17 20:10:00,87.0,70.4,30.06,SSW,199,10.0,10.0,58,0.00,,,0.00,VWS V12.08,2013-07-18 01:10:00,
2013-07-17 20:15:00,86.7,70.7,30.06,South,188,5.0,10.0,59,0.00,,,0.00,VWS V12.08,2013-07-18 01:15:00,
2013-07-17 20:20:00,86.3,70.8,30.06,SSE,160,5.0,10.0,60,0.00,,,0.00,VWS V12.08,2013-07-18 01:20:00,
2013-07-17 20:25:00,85.9,70.4,30.06,South,182,10.0,13.0,60,0.00,,,0.00,VWS V12.08,2013-07-18 01:25:00,
2013-07-17 20:30:00,85.6,70.6,30.06,SSW,192,9.0,13.0,61,0.00,,,0.00,VWS V12.08,2013-07-18 01:30:00,
2013-07-17 20:35:00,85.1,70.6,30.06,SW,214,5.0,13.0,62,0.00,,,0.00,VWS V12.08,2013-07-18 01:35:00,
2013-07-17 20:40:00,84.7,70.7,30.06,South,176,7.0,13.0,63,0.00,,,0.00,VWS V12.08,2013-07-18 01:40:00,
2013-07-17 20:45:00,84.3,70.3,30.06,SSW,202,6.0,13.0,63,0.00,,,0.00,VWS V12.08,2013-07-18 01:45:00,
2013-07-17 20:50:00,83.9,70.4,30.05,SW,214,6.0,13.0,64,0.00,,,0.00,VWS V12.08,2013-07-18 01:50:00,
2013-07-17 20:55:00,83.4,69.9,30.05,SW,214,5.0,13.0,64,0.00,,,0.00,VWS V12.08,2013-07-18 01:55:00,
2013-07-17 21:00:00,83.1,70.6,30.05,SSE,157,3.0,13.0,66,0.00,,,0.00,VWS V12.08,2013-07-18 02:00:00,
2013-07-17 21:05:00,82.6,70.5,30.05,SE,145,6.0,7.0,67,0.00,,,0.00,VWS V12.08,2013-07-18 02:05:00,
2013-07-17 21:10:00,82.1,70.5,30.05,SSE,151,5.0,7.0,68,0.00,,,0.00,VWS V12.08,2013-07-18 02:10:00,
2013-07-17 21:15:00,81.6,70.4,30.05,South,191,4.0,7.0,69,0.00,,,0.00,VWS V12.08,2013-07-18 02:15:00,
2013-07-17 21:20:00,81.3,70.2,30.05,SE,138,4.0,7.0,69,0.00,,,0.00,VWS V12.08,2013-07-18 02:20:00,
2013-07-17 21:25:00,81.1,70.0,30.05,SSE,160,4.0,7.0,69,0.00,,,0.00,VWS V12.08,2013-07-18 02:25:00,
2013-07-17 21:30:00,81.0,70.3,30.05,SSE,149,2.0,7.0,70,0.00,,,0.00,VWS V12.08,2013-07-18 02:30:00,
2013-07-17 21:35:00,80.8,70.1,30.05,SE,145,2.0,6.0,70,0.00,,,0.00,VWS V12.08,2013-07-18 02:35:00,
2013-07-17 21:40:00,80.5,70.2,30.05,SSW,207,2.0,6.0,71,0.00,,,0.00,VWS V12.08,2013-07-18 02:40:00,
2013-07-17 21:45:00,80.1,69.9,30.06,SSW,209,2.0,6.0,71,0.00,,,0.00,VWS V12.08,2013-07-18 02:45:00,
2013-07-17 21:50:00,79.9,70.1,30.06,SSW,202,3.0,6.0,72,0.00,,,0.00,VWS V12.08,2013-07-18 02:50:00,
2013-07-17 21:55:00,79.7,69.9,30.06,SSW,199,3.0,6.0,72,0.00,,,0.00,VWS V12.08,2013-07-18 02:55:00,
2013-07-17 22:00:00,79.4,69.6,30.06,SW,218,2.0,6.0,72,0.00,,,0.00,VWS V12.08,2013-07-18 03:00:00,
2013-07-17 22:05:00,79.3,69.5,30.06,SSW,203,2.0,5.0,72,0.00,,,0.00,VWS V12.08,2013-07-18 03:05:00,
2013-07-17 22:10:00,79.1,69.7,30.06,SSW,196,3.0,5.0,73,0.00,,,0.00,VWS V12.08,2013-07-18 03:10:00,
2013-07-17 22:15:00,79.0,69.6,30.06,South,191,5.0,5.0,73,0.00,,,0.00,VWS V12.08,2013-07-18 03:15:00,
2013-07-17 22:20:00,78.8,69.4,30.06,SSW,192,2.0,6.0,73,0.00,,,0.00,VWS V12.08,2013-07-18 03:20:00,
2013-07-17 22:25:00,78.6,69.6,30.05,SSW,207,5.0,10.0,74,0.00,,,0.00,VWS V12.08,2013-07-18 03:25:00,
2013-07-17 22:30:00,78.3,69.7,30.05,SW,227,5.0,10.0,75,0.00,,,0.00,VWS V12.08,2013-07-18 03:30:00,
2013-07-17 22:35:00,78.0,69.4,30.05,SSW,194,3.0,11.0,75,0.00,,,0.00,VWS V12.08,2013-07-18 03:35:00,
2013-07-17 22:40:00,77.7,69.5,30.05,South,191,2.0,11.0,76,0.00,,,0.00,VWS V12.08,2013-07-18 03:40:00,
2013-07-17 22:45:00,77.6,69.4,30.05,SSW,195,4.0,11.0,76,0.00,,,0.00,VWS V12.08,2013-07-18 03:45:00,
2013-07-17 22:50:00,77.4,69.2,30.05,SSE,164,4.0,11.0,76,0.00,,,0.00,VWS V12.08,2013-07-18 03:50:00,
2013-07-17 22:55:00,77.4,69.2,30.05,SSW,212,2.0,11.0,76,0.00,,,0.00,VWS V12.08,2013-07-18 03:55:00,
2013-07-17 23:00:00,77.1,69.3,30.05,SW,234,0.0,11.0,77,0.00,,,0.00,VWS V12.08,2013-07-18 04:00:00,
2013-07-17 23:01:00,77.1,69.3,30.05,South,186,2.0,11.0,77,0.00,,,0.00,VWS V12.08,2013-07-18 04:01:00,
2013-07-17 23:06:00,77.0,69.2,30.05,SSW,202,2.0,4.0,77,0.00,,,0.00,VWS V12.08,2013-07-18 04:06:00,
2013-07-17 23:11:00,77.0,69.2,30.05,SE,138,1.0,4.0,77,0.00,,,0.00,VWS V12.08,2013-07-18 04:11:00,
2013-07-17 23:16:00,77.0,69.2,30.05,South,183,2.0,4.0,77,0.00,,,0.00,VWS V12.08,2013-07-18 04:16:00,
2013-07-17 23:21:00,76.9,69.2,30.05,South,186,2.0,4.0,77,0.00,,,0.00,VWS V12.08,2013-07-18 04:21:00,
2013-07-17 23:26:00,76.8,69.4,30.05,SSW,205,2.0,4.0,78,0.00,,,0.00,VWS V12.08,2013-07-18 04:26:00,
2013-07-17 23:31:00,76.7,69.3,30.05,South,179,3.0,4.0,78,0.00,,,0.00,VWS V12.08,2013-07-18 04:31:00,
2013-07-17 23:36:00,76.6,69.2,30.05,South,191,3.0,6.0,78,0.00,,,0.00,VWS V12.08,2013-07-18 04:36:00,
2013-07-17 23:41:00,76.4,69.0,30.05,South,188,4.0,6.0,78,0.00,,,0.00,VWS V12.08,2013-07-18 04:41:00,
2013-07-17 23:46:00,76.4,69.4,30.04,SE,135,0.0,6.0,79,0.00,,,0.00,VWS V12.08,2013-07-18 04:46:00,
2013-07-17 23:51:00,76.2,69.2,30.05,SSE,159,1.0,6.0,79,0.00,,,0.00,VWS V12.08,2013-07-18 04:51:00,
2013-07-17 23:56:00,76.1,69.1,30.05,SW,215,0.0,6.0,79,0.00,,,0.00,VWS V12.08,2013-07-18 04:56:00,